Content
SEND FEEDBACK

Daily
Averages
Monthly
Summary
United States of America

CLINTON, TENNESSEE


Home > North America > United States > Tennessee
Elevation: 930 feet     Latitude: 36 01N     Longitude: 084 14W

WEATHER
 
SELECT A DAY
Number of Records: 173,586;   Date Range: 9/1/98 - 7/29/14
 
SHARE

PRINT THIS DATA

[ ← Previous Day ]
WEATHER ALMANAC - JANUARY 31, 2013
[ Next Day → ]
[ °C ]   °F
Weather ElementAverageHighLow
Temperature37.7 °F43 °F (3:53 pm)34 °F (4:53 am)
Dewpoint21.2 °F25 °F (1:53 am)18 °F (5:53 am)
Humidity51.9 %64 % (4:53 am)38 % (4:53 pm)
Barometer30.03 in30.10 in (12:53 pm)29.85 in (1:53 am)
Wind Speed7.4 mph12.7 mph (5:53 am)
Wind Gust24.2 mph (2:53 am)
Weather ElementAverage
Visibility10 mi
Wind DirectionSSE (171.3 °)

Weather ElementTotal
Precipitation---
Heating Degree Days26.5 (Base 65)
Averaged from 23 records on January 31, 2013
WEATHER CONDITIONS BREAKOUT
WIND DIRECTION BREAKOUT
WEATHER BY HOUR - JANUARY 31, 2013
[ °C ]   °F
Local TimeTemperatureDewpointHumidityBarometerVisibilityWind DirectionWind SpeedGust SpeedPrecipitationEventsConditions
1:53 AM37.0 °F25.0 °F62 %29.85 in10.0 miWest (270°)9.2 mph21.9 mph0.00 inOvercast
2:53 AM36.0 °F21.9 °F57 %29.90 in10.0 miWest (260°)10.4 mph24.2 mphOvercast
3:53 AM35.1 °F23.0 °F61 %29.92 in10.0 miWSW (250°)10.4 mph19.6 mphOvercast
4:53 AM34.0 °F23.0 °F64 %29.92 in10.0 miWest (270°)6.9 mph16.1 mph0.00 inOvercast
5:53 AM35.1 °F18.0 °F50 %29.96 in10.0 miWest (260°)12.7 mph19.6 mphOvercast
6:53 AM34.0 °F19.0 °F54 %29.97 in10.0 miVariable5.8 mphOvercast
7:53 AM34.0 °F19.0 °F54 %30.01 in10.0 miWSW (250°)6.9 mphOvercast
8:53 AM34.0 °F19.9 °F56 %30.04 in10.0 miWest (260°)8.1 mphOvercast
9:53 AM35.1 °F19.0 °F52 %30.07 in10.0 miWest (260°)10.4 mph17.3 mphOvercast
10:53 AM35.1 °F21.9 °F59 %30.09 in10.0 miVariable6.9 mphOvercast
11:53 AM37.9 °F21.9 °F53 %30.09 in10.0 miWest (260°)8.1 mph0.00 inOvercast
12:53 PM37.9 °F21.0 °F51 %30.10 in10.0 miSW (220°)8.1 mph19.6 mphOvercast
1:53 PM41.0 °F19.9 °F43 %30.07 in10.0 miVariable6.9 mphScattered Clouds
2:53 PM42.1 °F19.9 °F41 %30.08 in10.0 miWest (260°)9.2 mphMostly Cloudy
3:53 PM43.0 °F19.9 °F40 %30.06 in10.0 miVariable5.8 mphScattered Clouds
4:53 PM43.0 °F19.0 °F38 %30.07 in10.0 miWest (260°)8.1 mph20.7 mphMostly Cloudy
5:53 PM41.0 °F19.9 °F43 %30.07 in10.0 miVariable5.8 mphPartly Cloudy
6:53 PM39.9 °F21.0 °F47 %30.07 in10.0 miSSW (210°)4.6 mphPartly Cloudy
7:53 PM37.9 °F21.9 °F53 %30.08 in10.0 miSSW (210°)3.5 mphClear
8:53 PM39.0 °F23.0 °F53 %30.07 in10.0 miVariable5.8 mphClear
9:53 PM37.9 °F23.0 °F55 %30.07 in10.0 miVariable5.8 mphOvercast
10:53 PM39.0 °F23.0 °F53 %30.05 in10.0 miSW (220°)5.8 mphOvercast
11:53 PM39.0 °F24.1 °F55 %30.04 in10.0 miSW (220°)5.8 mphOvercast
Hourly data recorded from KOQT, located miles away from Clinton, Tennessee







STORIES FROM OUR PARTNERS